Location: Feydey
(46.3431°N, 7.0106°E)
Time: 05:56:03
(UTC+00:00)

Cosmos 1892 - Pass Details

Date: 20 June 2021
Orbit: 501 x 524 km, 82.5° (Epoch: 28 July)

Event Time Altitude Azimuth Distance (km) Brightness Sun altitude
Exits shadow 23:30:02 37° 112° (ESE) 826 3.5 -20.2°
Maximum altitude 23:30:30 39° 93° (E) 800 3.5 -20.2°
Drops below altitude 10° 23:34:09 10° 24° (NNE) 1,775 6.4 -20.2°
Sets 23:36:23 0° 16° (NNE) 2,667 7.7 -20.2°
